Location: Euclid Homes (historical)
(41.5844°N, 81.5389°W)
Time: 03:29:55
(UTC+00:00)

Daily predictions for brighter satellites

Satellite Brightness Start Highest point End
(mag) Time Altitude Azimuth Time Altitude Azimuth Time Altitude Azimuth
Aureole 1 Rocket 3.8 00:04:34 10° SW 00:07:06 32° WNW 00:07:06 32° WNW
Cosmos 407 Rocket 3.3 00:02:17 10° SSW 00:07:27 83° ESE 00:08:40 54° NNE
Cosmos 1140 Rocket 3.6 00:04:15 10° S 00:08:41 55° SE 00:08:41 55° SE
Cosmos 2026 Rocket 4.1 00:05:20 10° SSW 00:11:21 70° W 00:17:25 10° N
Cosmos 1782 Rocket 4.0 00:13:30 10° NNW 00:17:48 59° W 00:22:03 10° S
Cosmos 921 Rocket 4.2 00:14:58 10° NNW 00:17:22 33° NNW 00:17:22 33° NNW
Cosmos 1023 Rocket 4.5 00:15:38 10° SSW 00:20:01 65° SSE 00:20:01 65° SSE
NOAA 11 4.2 00:18:40 10° S 00:24:07 81° WSW 00:29:38 10° NNW
Cosmos 1417 Rocket 4.3 00:22:03 10° N 00:28:13 88° E 00:34:21 10° S
BREEZE-M DEB (TANK) 4.4 00:26:15 10° WNW 00:27:30 19° WNW 00:27:30 19° WNW
BREEZE-M DEB (TANK) 4.3 00:28:19 10° WNW 00:29:42 21° WNW 00:29:42 21° WNW
Cosmos 1655 Rocket 3.9 00:29:04 10° S 00:35:24 87° E 00:36:03 74° NNE
CZ-3B R/B 4.5 00:32:51 10° S 00:36:05 15° SSE 00:36:05 15° SSE
SL-16 R/B 2.9 00:38:11 10° SW 00:43:40 50° WNW 00:44:45 44° NNW
Meteor 1-19 Rocket 4.4 00:39:05 10° SSW 00:44:11 65° WSW 00:44:11 65° WSW
Cosmos 2369 Rocket 4.3 00:40:53 10° NNW 00:41:43 14° N 00:41:43 14° N
CZ-4C R/B 4.5 08:30:39 29° ENE 08:30:39 29° ENE 08:36:06 10° E
FALCON 9 R/B 4.1 08:57:38 36° SE 08:57:38 36° SE 09:09:34 10° E
USA 234 3.9 09:10:00 10° NE 09:14:40 50° ENE 09:14:40 50° ENE
SL-16 R/B 3.3 09:40:15 36° SSE 09:40:15 36° SSE 09:43:29 10° SSE
Cosmos 1241 Rocket 4.4 09:59:19 70° S 09:59:19 70° S 10:04:52 10° SSE
Meteor 1-27 Rocket 3.7 10:01:37 81° N 10:01:57 87° E 10:07:51 10° S
BREEZE-M DEB 4.0 10:04:09 65° WNW 10:05:10 88° NNE 10:09:19 10° ESE
Cosmos 2084 Rocket 4.3 10:09:40 49° ENE 10:09:40 49° ENE 10:13:41 10° SE
Cosmos 1484 Rocket 3.9 10:05:40 10° NNE 10:09:25 42° E 10:13:07 10° S
Cosmos 724 4.1 10:13:04 74° W 10:13:21 76° WNW 10:19:19 10° NNE
CZ-4C R/B 2.9 10:15:53 46° NW 10:18:32 80° WSW 10:26:52 10° SSE
COSMO-SKYMED 1 3.4 10:16:37 10° SSE 10:20:48 50° ENE 10:22:52 27° NNE
Cosmos 614 Rocket 4.0 10:21:47 61° SSW 10:21:47 61° SSW 10:26:11 10° S
Cosmos 2263 Rocket 2.9 10:17:53 10° S 10:23:16 52° ESE 10:28:40 10° NNE
BREEZE-M DEB (TANK) 3.9 10:25:42 34° WSW 10:29:58 70° NNW 10:33:55 10° NE
Okean O Rocket 3.3 10:28:08 10° NNE 10:32:08 33° E 10:36:07 10° SSE
Cosmos 407 Rocket 3.6 10:34:45 54° W 10:34:55 54° WSW 10:40:06 10° S
Cosmos 1703 Rocket 3.9 10:32:18 21° N 10:35:12 65° E 10:39:35 10° SSE
Cosmos 1140 Rocket 3.3 10:33:50 46° NNW 10:35:24 78° WSW 10:40:37 10° SSE
Cosmos 2227 4.1 10:31:33 10° SSW 10:37:18 89° WNW 10:43:07 10° NNE
Cosmos 2242 Rocket 3.5 10:37:47 65° WNW 10:38:00 67° W 10:42:27 10° S
Cosmos 2297 Rocket 4.4 10:43:09 10° NNW 10:43:09 10° NNW 10:43:15 10° N
ALOS 2.7 10:37:46 10° NNE 10:42:25 63° E 10:47:03 10° S
Nadezhda 4 Rocket 3.9 10:39:14 16° NNW 10:44:09 58° W 10:50:09 10° S
Cosmos 2227 Rocket 4.3 10:47:12 11° NNW 10:47:12 11° NNW 10:47:34 10° N
SKYMED 3 4.4 10:40:35 10° SSE 10:44:54 88° WSW 10:47:17 27° NNW
STARLINK 1053 4.4 10:45:39 31° NNE 10:46:01 31° NNE 10:49:10 10° E
Cosmos 1023 Rocket 4.5 10:45:01 41° NW 10:46:38 60° WSW 10:51:47 10° S
Lacrosse 5 3.9 10:49:21 14° SW 10:49:21 14° SW 10:50:38 10° SSW
FALCON 9 DEB 4.4 10:49:19 26° ENE 10:49:19 26° ENE 10:50:44 10° ESE
PSLV R/B 4.3 10:49:33 31° E 10:49:33 31° E 10:51:00 10° E
STARLINK 1061 4.3 10:48:14 31° N 10:48:43 33° NNE 10:51:54 10° E
SJ-12 3.8 10:45:18 10° NNE 10:49:27 88° WNW 10:53:33 10° SSW
Cosmos 1932 4.5 10:45:34 23° SW 10:49:31 59° NW 10:55:54 10° NNE
Cosmos 1869 Rocket 3.8 10:46:07 10° S 10:50:24 67° E 10:54:43 10° NNE
FENGYUN 3A 3.8 10:45:29 10° NNE 10:50:53 73° ESE 10:56:15 10° S
STARLINK 1067 4.3 10:51:08 31° N 10:51:45 34° NNE 10:54:57 10° E
CZ-4B R/B 3.9 10:47:47 10° NNE 10:53:19 57° E 10:58:52 10° S
STARLINK 1058 4.2 10:53:48 32° N 10:54:31 35° NNE 10:57:45 10° E
STARLINK 1044 3.8 10:54:59 35° NNE 10:55:05 35° NNE 10:57:45 10° E
GEOS 3 Rocket 3.7 10:50:26 10° SSE 10:55:24 54° WSW 10:57:27 33° WNW
STARLINK 1043 4.2 10:56:48 31° N 10:57:40 37° NNE 11:00:56 10° E
USA 234 3.8 10:53:17 10° NE 10:59:15 39° NNW 11:02:02 27° WNW
STARLINK 1065 4.1 10:59:35 31° N 11:00:35 39° NNE 11:03:52 10° ESE
Meteor 1-25 Rocket 4.1 10:56:37 10° SSW 11:02:11 72° W 11:07:52 10° N
Meteor 1-14 Rocket 4.4 10:57:15 10° S 11:03:10 81° E 11:09:10 10° NNE
STARLINK 1063 4.1 11:02:34 30° NNW 11:03:42 41° NNE 11:07:01 10° ESE
Cosmos 2026 Rocket 3.9 11:00:07 10° N 11:06:20 86° W 11:12:35 10° S
STARLINK 1064 4.0 11:05:20 30° NNW 11:06:34 43° NNE 11:09:55 10° ESE
Cosmos 1943 3.1 11:02:52 14° NNW 11:07:42 88° WSW 11:13:19 10° SSE
PAYLOAD B 4.1 11:02:13 10° NNE 11:07:45 81° WNW 11:13:16 10° SSW
SKYMED 2 3.8 11:04:45 10° S 11:08:56 47° W 11:11:32 21° NW
STARLINK 1041 3.9 11:08:12 29° NNW 11:09:34 45° NNE 11:12:57 10° ESE
STARLINK 1038 3.8 11:11:06 28° NNW 11:12:35 48° NNE 11:15:59 10° ESE
METEOR-M 4.0 11:09:04 10° N 11:14:23 68° WNW 11:19:41 10° SSW
Cosmos 2279 Rocket 4.2 11:08:32 10° S 11:14:42 77° E 11:20:55 10° N
STARLINK 1046 3.7 11:13:59 26° NNW 11:15:36 51° NNE 11:19:01 10° ESE
STARLINK 1039 3.6 11:16:52 25° NW 11:18:38 54° NE 11:22:03 10° ESE
STARLINK 1045 3.6 11:18:03 25° NW 11:19:51 55° NE 11:23:18 10° ESE
Okean 1 3.2 11:16:56 10° NNW 11:20:52 65° W 11:24:47 10° S
SL-16 R/B 4.0 11:22:13 13° WSW 11:22:13 13° WSW 11:23:47 10° SW
Starlink Launch 2 leader 2.1 11:20:43 49° WNW 11:21:15 83° SW 11:23:42 10° SE
Cosmos 1634 Rocket 4.0 11:15:44 10° SSW 11:21:50 58° W 11:27:56 10° N
Cosmos 1340 2.5 11:20:18 10° SSW 11:24:02 73° W 11:27:49 10° N
SL-24 R/B 4.3 11:19:54 10° SSE 11:24:27 77° ENE 11:28:42 10° N
Starlink Launch 2 trailer 2.1 11:24:15 41° WNW 11:24:56 73° SW 11:27:22 10° SE
Meteor 1-19 Rocket 4.2 11:20:01 10° N 11:25:32 87° W 11:31:10 10° S
Timation 1 Rocket 4.3 11:19:53 10° SW 11:25:46 63° WNW 11:31:43 10° NNE
OE (NEXTSAT) 4.3 11:25:17 25° WNW 11:27:11 89° NNE 11:30:43 10° ESE
Cosmos 1515 4.2 11:24:20 10° N 11:28:07 61° E 11:31:53 10° SSE
Cosmos 1603 4.1 11:23:43 14° NW 11:28:17 45° WSW 11:33:39 10° S
Okean 1-7 3.6 11:24:41 11° NNW 11:28:33 37° W 11:32:35 10° SSW
Cosmos 1461 3.9 11:29:28 20° WNW 11:31:30 29° WSW 11:35:19 10° S
Cosmos 1602 4.0 11:28:41 10° SSW 11:32:18 41° WNW 11:35:58 10° N
Cosmos 1655 Rocket 4.2 11:26:38 10° N 11:32:52 74° E 11:39:04 10° SSE
Meteor 2-4 Rocket 3.9 11:29:28 10° N 11:34:59 72° E 11:40:21 10° SSE
Helios 1A Rocket 3.1 11:32:50 10° N 11:36:44 48° WNW 11:40:35 10° SSW
Cosmos 1484 Rocket 4.4 11:41:13 10° NNW 11:43:27 15° WNW 11:45:41 10° W
Cosmos 1536 4.3 11:40:57 10° SSE 11:44:47 41° E 11:48:37 10° NNE
Cosmos 332 Rocket 4.4 11:40:44 10° S 11:45:34 63° ESE 11:50:26 10° NNE
FALCON 9 DEB 3.2 11:46:57 17° W 11:48:16 30° SW 11:50:23 10° SSE
SL-23 DEB 3.8 11:51:59 10° W 11:55:00 41° NNW 11:58:18 10° NE
STARLINK 1027 3.1 11:54:37 12° WNW 11:57:09 49° SW 12:00:00 10° SE
COSMO-SKYMED 1 4.3 11:54:49 10° SW 11:57:14 15° W 11:59:40 10° WNW
